Weather History for Beatrice, NE

Change the Weather History Date:

Thursday, August 29, 2013

  Actual Average Record
Temperature  
Mean Temperature 84 °F -  
Max Temperature 97 °F 87 °F 103 °F (1984)
Min Temperature 72 °F 62 °F 48 °F (2004)
Cooling Degree Days 20    
Growing Degree Days 34 (Base 50)    
Moisture  
Dew Point 71 °F    
Average Humidity 69    
Maximum Humidity 96    
Minimum Humidity 37    
Precipitation  
Precipitation 0.00 in - - ()
Sea Level Pressure  
Sea Level Pressure 29.98 in    
Wind  
Wind Speed 5 mph (SSE)    
Max Wind Speed 12 mph    
Max Gust Speed 16 mph    
Visibility 10 miles    
Events      
Averages and records for this station are not official NWS values.
T = Trace of Precipitation, MM = Missing Value Source: NWS Daily Summary

Daily Weather History Graph

Daily Weather History Graph

Search for Another Location

Airport:

Trip Planner

Search our weather history database for the weather conditions in past years. The results will help you decide how hot, cold, wet, or windy it might be!

Date:

Astronomy

Aug. 29, 2013 Rise Set
Actual Time 6:51 AM CDT 8:03 PM CDT
Civil Twilight 6:23 AM CDT 8:31 PM CDT
Nautical Twilight 5:50 AM CDT 9:04 PM CDT
Astronomical Twilight 5:14 AM CDT 9:39 PM CDT
Moon 12:43 AM CDT (8/29) 3:33 PM CDT (8/29)
Length of Visible Light 14h 07m
Length of Day
13h 11m
Last Quarter, 38% of the Moon is Illuminated
Aug 29
Last Quarter
Sep 5
New
Sep 12
First Quarter
Sep 19
Full
Sep 26
Last Quarter

Hourly Weather History & Observations

Time (CDT) Temp. Heat Index Dew Point Humidity Pressure Visibility Wind Dir Wind Speed Gust Speed Precip Events Conditions
12:15 AM 77.5 °F - 72.5 °F 84% 30.02 in 10.0 mi SE 3.5 mph - N/A   Clear
12:35 AM 77.0 °F - 72.5 °F 86% 30.01 in 10.0 mi SE 3.5 mph - N/A   Clear
12:55 AM 77.0 °F - 72.5 °F 86% 30.02 in 10.0 mi SE 3.5 mph - N/A   Clear
1:15 AM 77.0 °F - 72.5 °F 86% 30.02 in 10.0 mi Calm Calm - N/A   Clear
1:35 AM 76.5 °F - 72.5 °F 87% 30.02 in 10.0 mi Calm Calm - N/A   Clear
1:55 AM 76.1 °F - 72.5 °F 89% 30.02 in 10.0 mi ESE 3.5 mph - N/A   Clear
2:15 AM 75.4 °F - 72.3 °F 90% 30.01 in 10.0 mi SSE 3.5 mph - N/A   Clear
2:35 AM 76.1 °F - 72.1 °F 87% 30.02 in 10.0 mi South 3.5 mph - N/A   Clear
2:55 AM 76.1 °F - 72.0 °F 87% 30.02 in 10.0 mi SE 3.5 mph - N/A   Clear
3:15 AM 74.5 °F - 71.8 °F 91% 30.02 in 10.0 mi ESE 3.5 mph - N/A   Clear
3:35 AM 73.9 °F - 71.8 °F 93% 30.01 in 10.0 mi SE 3.5 mph - N/A   Clear
3:55 AM 74.3 °F - 71.8 °F 92% 30.01 in 10.0 mi Calm Calm - N/A   Clear
4:15 AM 74.5 °F - 71.8 °F 91% 30.01 in 10.0 mi Calm Calm - N/A   Clear
4:35 AM 73.8 °F - 71.6 °F 93% 30.01 in 10.0 mi Calm Calm - N/A   Clear
4:55 AM 73.2 °F - 71.4 °F 94% 30.01 in 10.0 mi SE 4.6 mph - N/A   Clear
5:15 AM 73.4 °F - 71.6 °F 94% 30.01 in 10.0 mi SSE 4.6 mph - N/A   Clear
5:35 AM 73.4 °F - 71.6 °F 94% 30.01 in 10.0 mi ESE 3.5 mph - N/A   Clear
5:55 AM 72.9 °F - 71.6 °F 96% 30.00 in 10.0 mi SE 4.6 mph - N/A   Clear
6:15 AM 73.6 °F - 71.8 °F 94% 30.00 in 10.0 mi SE 3.5 mph - N/A   Clear
6:35 AM 73.4 °F - 71.8 °F 95% 30.01 in 10.0 mi SE 4.6 mph - N/A   Clear
6:55 AM 73.4 °F - 71.8 °F 95% 30.01 in 10.0 mi SSE 5.8 mph - N/A   Clear
7:15 AM 73.8 °F - 72.1 °F 95% 30.01 in 10.0 mi SSE 6.9 mph - N/A   Clear
7:35 AM 74.3 °F - 72.5 °F 94% 30.01 in 10.0 mi SSE 4.6 mph - N/A   Clear
7:55 AM 75.2 °F - 72.7 °F 92% 30.01 in 10.0 mi SSE 5.8 mph - N/A   Clear
8:15 AM 76.5 °F - 73.0 °F 89% 30.01 in 10.0 mi SSE 5.8 mph - N/A   Clear
8:35 AM 77.4 °F - 73.6 °F 88% 30.01 in 10.0 mi SSE 5.8 mph - N/A   Clear
8:55 AM 79.5 °F - 73.9 °F 83% 30.01 in 10.0 mi SSE 5.8 mph - N/A   Clear
9:15 AM 80.6 °F 85.7 °F 74.3 °F 81% 30.01 in 10.0 mi SSE 6.9 mph - N/A   Clear
9:35 AM 81.7 °F 87.8 °F 74.7 °F 79% 30.01 in 10.0 mi South 5.8 mph - N/A   Clear
9:55 AM 82.8 °F 89.8 °F 75.0 °F 77% 30.02 in 10.0 mi SSE 5.8 mph - N/A   Clear
10:15 AM 84.4 °F 92.7 °F 75.4 °F 74% 30.01 in 10.0 mi SE 6.9 mph - N/A   Clear
10:35 AM 85.5 °F 94.6 °F 75.6 °F 72% 30.01 in 10.0 mi South 8.1 mph - N/A   Clear
10:55 AM 86.4 °F 95.5 °F 75.2 °F 69% 30.01 in 10.0 mi SSW 5.8 mph - N/A   Clear
11:15 AM 87.4 °F 97.2 °F 75.4 °F 67% 30.01 in 10.0 mi South 4.6 mph - N/A   Clear
11:35 AM 88.0 °F 95.1 °F 72.5 °F 60% 30.00 in 10.0 mi SSE 6.9 mph - N/A   Clear
12:15 PM 90.1 °F 98.9 °F 73.4 °F 58% 30.00 in 10.0 mi SSE 8.1 mph - N/A   Clear
12:55 PM 91.9 °F 99.5 °F 72.0 °F 52% 29.99 in 10.0 mi South 6.9 mph - N/A   Clear
1:15 PM 92.7 °F 99.4 °F 71.1 °F 49% 29.98 in 10.0 mi SSE 9.2 mph - N/A   Clear
1:35 PM 93.2 °F 98.8 °F 69.4 °F 46% 29.98 in 10.0 mi SSE 9.2 mph - N/A   Clear
1:55 PM 94.1 °F 101.2 °F 70.9 °F 47% 29.97 in 10.0 mi South 9.2 mph - N/A   Clear
2:15 PM 94.5 °F 100.8 °F 70.3 °F 45% 29.97 in 10.0 mi SSE 9.2 mph - N/A   Clear
2:35 PM 95.4 °F 100.2 °F 68.2 °F 41% 29.96 in 10.0 mi South 11.5 mph - N/A   Clear
2:55 PM 95.9 °F 100.1 °F 67.1 °F 39% 29.95 in 10.0 mi SE 10.4 mph 16.1 mph N/A   Clear
3:15 PM 96.3 °F 100.8 °F 67.8 °F 39% 29.95 in 10.0 mi South 10.4 mph - N/A   Clear
3:35 PM 96.8 °F 100.7 °F 66.2 °F 37% 29.95 in 10.0 mi South 9.2 mph - N/A   Clear
3:55 PM 97.0 °F 101.0 °F 66.4 °F 37% 29.94 in 10.0 mi South 10.4 mph - N/A   Clear
4:15 PM 96.8 °F 100.7 °F 66.6 °F 37% 29.94 in 10.0 mi SSW 10.4 mph - N/A   Clear
4:35 PM 96.8 °F 101.8 °F 67.8 °F 39% 29.94 in 10.0 mi South 9.2 mph - N/A   Clear
4:55 PM 96.3 °F 100.8 °F 67.3 °F 39% 29.94 in 10.0 mi South 8.1 mph - N/A   Clear
5:15 PM 96.1 °F 100.5 °F 67.5 °F 39% 29.93 in 10.0 mi South 6.9 mph - N/A   Clear
5:35 PM 96.1 °F 101.0 °F 67.8 °F 40% 29.93 in 10.0 mi South 9.2 mph - N/A   Clear
5:55 PM 95.9 °F 100.1 °F 67.6 °F 39% 29.93 in 10.0 mi South 6.9 mph - N/A   Clear
6:15 PM 95.0 °F 100.1 °F 68.4 °F 42% 29.93 in 10.0 mi South 6.9 mph - N/A   Clear
6:35 PM 94.1 °F 98.9 °F 68.7 °F 43% 29.93 in 10.0 mi South 6.9 mph - N/A   Clear
6:55 PM 93.2 °F 98.3 °F 69.3 °F 45% 29.92 in 10.0 mi South 6.9 mph - N/A   Clear
7:15 PM 91.9 °F 98.4 °F 70.9 °F 50% 29.92 in 10.0 mi South 5.8 mph - N/A   Clear
7:35 PM 89.6 °F 95.7 °F 70.9 °F 54% 29.93 in 10.0 mi South 4.6 mph - N/A   Clear
7:55 PM 90.1 °F 96.3 °F 70.9 °F 53% 29.93 in 7.0 mi SE 4.6 mph - N/A   Clear
8:15 PM 89.2 °F 95.9 °F 71.4 °F 56% 29.93 in 10.0 mi ESE 4.6 mph - N/A   Clear
8:35 PM 87.4 °F 94.0 °F 71.8 °F 60% 29.93 in 10.0 mi SSE 4.6 mph - N/A   Clear
8:55 PM 86.9 °F 92.9 °F 71.4 °F 60% 29.93 in 10.0 mi SE 3.5 mph - N/A   Clear
9:15 PM 86.2 °F 91.4 °F 71.1 °F 60% 29.93 in 10.0 mi SE 3.5 mph - N/A   Clear
9:35 PM 84.9 °F 90.1 °F 70.9 °F 63% 29.94 in 10.0 mi SE 3.5 mph - N/A   Clear
9:55 PM 83.3 °F 88.4 °F 71.6 °F 68% 29.94 in 10.0 mi SE 4.6 mph - N/A   Clear
10:15 PM 82.9 °F 87.2 °F 70.7 °F 66% 29.94 in 10.0 mi SE 5.8 mph - N/A   Clear
10:35 PM 82.4 °F 86.3 °F 70.0 °F 66% 29.94 in 10.0 mi SE 5.8 mph - N/A   Clear
10:55 PM 81.7 °F 85.4 °F 70.3 °F 68% 29.93 in 10.0 mi SE 4.6 mph - N/A   Clear
11:15 PM 80.6 °F 84.2 °F 70.7 °F 72% 29.93 in 10.0 mi SE 4.6 mph - N/A   Clear
11:35 PM 80.1 °F 83.6 °F 71.1 °F 74% 29.93 in 10.0 mi SE 4.6 mph - N/A   Clear
11:55 PM 79.7 °F - 71.1 °F 75% 29.94 in 10.0 mi SE 4.6 mph - N/A   Clear